カタログに戻る

FENGYUN 1C DEB

運用中PO
NORAD 30474·DEBRIS·🇨🇳 China

打ち上げ May 10, 1999 から Taiyuan Satellite Launch Center

Loading…

次のパス (今後24時間)

TLE

最新Source: Space-Track

元期: Sep 14, 2026, 05:27 UTC

1 30474U 99025AGM 26257.22731674  .00003227  00000-0  10183-2 0  9996
2 30474  98.9220 352.3693 0023432 266.7351 122.7289 14.40854077 13549

AllMySatでFENGYUN 1C DEBをリアルタイム追跡

Download on the App Store